Satellite-Ground Cal/Val Region Overpasses Predictions

Prediction of Satellite NPP Overpassing Cal/Val Region: PacNW

Region Location: (Latitude: 10.00, Longitude: 139.50) to (Latitude: 22.70, Longitude: 165.60).

Table of predicted overpasses for the next 14.0 days since TLE Epoch: 5/9/2016
Interval Starting Time Starting Location Ending Time Ending Location
1 05/09/2016 15:37:36 ( 22.67, 150.77) 05/09/2016 15:41:11 ( 10.05, 147.77)
2 05/10/2016 02:46:41 ( 10.02, 158.30) 05/10/2016 02:50:16 ( 22.64, 155.30)
3 05/10/2016 15:18:35 ( 22.65, 155.52) 05/10/2016 15:22:10 ( 10.03, 152.52)
4 05/11/2016 02:27:40 ( 10.04, 163.06) 05/11/2016 02:31:15 ( 22.66, 160.06)
5 05/11/2016 14:59:32 ( 22.69, 160.29) 05/11/2016 15:03:08 ( 10.01, 157.28)
6 05/12/2016 02:11:19 ( 19.51, 165.59) 05/12/2016 02:12:13 ( 22.68, 164.81)
7 05/12/2016 03:50:07 ( 10.01, 142.45) 05/12/2016 03:53:38 ( 22.39, 139.51)
8 05/12/2016 14:40:31 ( 22.67, 165.04) 05/12/2016 14:44:06 ( 10.05, 162.04)
9 05/12/2016 16:22:01 ( 22.67, 139.67) 05/12/2016 16:22:12 ( 22.02, 139.51)
10 05/13/2016 03:31:06 ( 10.03, 147.20) 05/13/2016 03:34:41 ( 22.65, 144.20)
11 05/13/2016 16:02:59 ( 22.65, 144.42) 05/13/2016 16:06:34 ( 10.02, 141.42)
12 05/14/2016 03:12:04 ( 10.05, 151.95) 05/14/2016 03:15:39 ( 22.67, 148.95)
13 05/14/2016 15:43:57 ( 22.69, 149.18) 05/14/2016 15:47:33 ( 10.00, 146.17)
14 05/15/2016 02:53:02 ( 10.01, 156.71) 05/15/2016 02:56:38 ( 22.69, 153.70)
15 05/15/2016 15:24:55 ( 22.66, 153.93) 05/15/2016 15:28:30 ( 10.04, 150.93)
16 05/16/2016 02:34:00 ( 10.03, 161.47) 05/16/2016 02:37:35 ( 22.65, 158.47)
17 05/16/2016 15:05:54 ( 22.64, 158.69) 05/16/2016 15:09:29 ( 10.02, 155.69)
18 05/17/2016 02:15:45 ( 12.75, 165.60) 05/17/2016 02:18:34 ( 22.67, 163.22)
19 05/17/2016 03:56:29 ( 10.05, 140.84) 05/17/2016 03:58:07 ( 15.81, 139.51)
20 05/17/2016 14:46:51 ( 22.68, 163.45) 05/17/2016 14:50:27 ( 10.00, 160.44)
21 05/18/2016 03:37:26 ( 10.02, 145.61) 05/18/2016 03:41:02 ( 22.70, 142.59)
22 05/18/2016 14:30:56 ( 11.74, 165.59) 05/18/2016 14:31:25 ( 10.04, 165.20)
23 05/18/2016 16:09:20 ( 22.65, 142.83) 05/18/2016 16:12:55 ( 10.03, 139.83)
24 05/19/2016 03:18:25 ( 10.04, 150.36) 05/19/2016 03:22:00 ( 22.66, 147.36)
25 05/19/2016 15:50:18 ( 22.69, 147.59) 05/19/2016 15:53:54 ( 10.01, 144.58)
26 05/20/2016 02:59:22 ( 10.00, 155.12) 05/20/2016 03:02:58 ( 22.68, 152.11)
27 05/20/2016 15:31:16 ( 22.67, 152.34) 05/20/2016 15:34:51 ( 10.05, 149.34)
28 05/21/2016 02:40:21 ( 10.03, 159.87) 05/21/2016 02:43:56 ( 22.65, 156.87)
29 05/21/2016 15:12:15 ( 22.64, 157.09) 05/21/2016 15:15:50 ( 10.02, 154.09)
30 05/22/2016 02:21:19 ( 10.05, 164.63) 05/22/2016 02:24:54 ( 22.67, 161.63)


NCC Satellite Cal/Val Overpasses Prediction Service
